Flag for Tunisia Weather past 2 weeks in Tunis, Tunisia

Now
48 °F

Scattered clouds.


Feels Like: 42 °F
Forecast: 47 / 51 °F
Wind: 17 mph from West

Location: Tunis-Carthage

Current Time: Mar 5, 2015 at 8:10:51 AM

Latest Report: Mar 5, 2015 at 7:30 AM


Visibility: N/A

Pressure: 30.01 "Hg

Humidity: 66%

Dew point: 37 °F

Location of TunisLocation

Historic Weather in Tunis — Graph

°F

Tunis temperature yesterday

Maximum temperature yesterday: 79 °F (at 2:30 PM)
Minimum temperature yesterday: 50 °F (at 3:00 AM)
Average temperature yesterday: 63 °F

Past Weeks' High & Low Weather Summary

 TemperatureHumidityPressure
High79 °F (Mar 4, 2:30 PM)100% (Feb 18, 7:00 AM)30.39 "Hg (Feb 18, 7:00 AM)
Low41 °F (Feb 20, 6:30 AM)45% (Mar 4, 2:30 PM)29.39 "Hg (Feb 22, 5:00 AM)
Average55 °F77%29.99 "Hg
* Reported Feb 18 6:00 AM — Mar 5 6:45 AM, Tunis, Weather by CustomWeather, © 2015

Note: Actual official high and low records may vary slightly from our data, if they occured in-between our weather recording intervals... More about our weather records

Advertising

Tunis weather history for previous 24 hours

 ConditionsComfort  
Time TempWeatherWind HumidityBarometerVisibility
6:45 AM
Thu, Mar 5
50 °FStrong thunderstorms. Scattered clouds.23 mph67%30.04 "Hg5 mi
6:30 AM52 °FPassing clouds.17 mph54%30.01 "HgN/A
5:30 AM52 °FPassing clouds.21 mph62%30.01 "HgN/A
4:30 AM52 °FPassing clouds.18 mph72%30.04 "HgN/A
4:00 AM52 °FPassing clouds.13 mph72%30.04 "HgN/A
2:00 AM54 °FPassing clouds.21 mph82%30.04 "HgN/A
1:30 AM55 °FPassing clouds.22 mph82%30.01 "HgN/A
1:00 AM61 °FPassing clouds.22 mph72%30.01 "HgN/A
12:00 AM61 °FPassing clouds.15 mph72%30.01 "HgN/A
11:30 PM
Wed, Mar 4
61 °FPassing clouds.12 mph72%30.01 "HgN/A
10:00 PM61 °FPassing clouds.6 mph77%30.04 "HgN/A
9:30 PM61 °FPassing clouds.14 mph77%30.04 "HgN/A
9:00 PM64 °FPassing clouds.18 mph64%30.01 "HgN/A
8:30 PM66 °FPassing clouds.16 mph56%30.01 "HgN/A
8:00 PM68 °FPassing clouds.9 mph53%30.01 "HgN/A
7:30 PM68 °FPassing clouds.9 mph56%30.01 "HgN/A
7:00 PM70 °FPassing clouds.5 mph53%30.01 "HgN/A
6:30 PM68 °FPassing clouds.7 mph69%30.04 "HgN/A
6:00 PM72 °FPassing clouds.6 mph65%30.04 "HgN/A
5:30 PM73 °FPassing clouds.No wind61%30.01 "HgN/A
5:00 PM75 °FPassing clouds.6 mph54%30.01 "HgN/A
4:30 PM79 °FPassing clouds.6 mph48%30.04 "HgN/A
3:30 PM79 °FPassing clouds.7 mph48%30.04 "HgN/A
3:00 PM79 °FPassing clouds.5 mph51%30.07 "HgN/A
2:30 PM79 °FPassing clouds.8 mph45%30.07 "HgN/A
2:00 PM77 °FPassing clouds.5 mph47%30.09 "HgN/A
1:30 PM77 °FPassing clouds.6 mph47%30.09 "HgN/A
1:00 PM75 °FPassing clouds.6 mph54%30.12 "HgN/A
12:30 PM75 °FPassing clouds.6 mph50%30.15 "HgN/A
12:00 PM73 °FPassing clouds.6 mph53%30.15 "HgN/A
11:30 AM72 °FPassing clouds.7 mph53%30.18 "HgN/A
11:00 AM70 °FPassing clouds.5 mph57%30.18 "HgN/A
10:30 AM66 °FPassing clouds.6 mph64%30.21 "HgN/A
10:00 AM64 °FPassing clouds.6 mph73%30.21 "Hg5 mi
9:30 AM61 °FPassing clouds.6 mph77%30.21 "Hg4 mi
9:00 AM59 °FPassing clouds.6 mph82%30.24 "Hg4 mi
8:30 AM57 °FPassing clouds.5 mph94%30.24 "Hg4 mi
8:01 AM55 °FPassing clouds.No wind94%30.24 "Hg4 mi
Weather by CustomWeather, © 2015

See weather overviewHow to use our weather pages